{"data":{"norad_id":56122,"epoch":"2026-09-19T22:06:17.580384Z","epoch_age_seconds":159068,"freshness":"FRESH","line1":"1 56122U 23046AF  26262.92103681  .00000029  00000+0  10603-4 0  9993","line2":"2 56122  43.0044 141.4799 0001628 270.9852  89.0813 15.27575783191772","mean_motion":15.27575783,"eccentricity":0.0001628,"inclination_deg":43.0044,"raan_deg":141.4799,"arg_perigee_deg":270.9852,"mean_anomaly_deg":89.0813,"bstar":1.0603e-5,"rev_number":19177,"period_min":94.267008944852,"perigee_km":481.94472013161,"apogee_km":484.17872643591,"semimajor_km":6861.1987232838,"source":"CELESTRAK","updated_at":"2026-09-21T09:00:33.385938Z"}}